Wind_Speed
8 6 7 7 9 10 11 12 12 15 17 14 11 10 11 10 9 10 8 16 11 7 7 8 9 12 11 12 15 11 17 12 8 8 9 10 9 9 6 12 19 16 19 18 15 15 15 17 17 17 19 20 19 17 15 14 12 11 10 9 9 9 9 10 11 12 12 11 10 10 10 9 9 10 10 8 8 8 9 10 11 10 11 14 14 15
8 7 7 9 12 11 14 13 9 14 16 11 9 10 11 9 7 9 6 11 11 5 5 7 10 14 12 14 16 8 15 13 10 9 10 11 10 10 9 18 20 17 18 17 15 16 17 19 18 18 19 19 18 17 15 13 11 10 9 8 8 8 7 7 7 8 9 8 7 8 8 8 8 9 9 8 9 11 12 12 12 12 13 14 14 15
6 7 8 12 13 13 18 12 3 11 11 5 6 9 9 8 8 9 11 11 7 5 6 7 8 12 13 14 13 9 9 10 13 10 10 12 12 11 13 21 19 17 19 17 17 19 20 20 19 18 19 18 17 16 15 14 13 11 10 9 8 7 7 5 5 4 3 3 2 3 4 4 5 6 6 7 9 10 11 11 11 11 12 14 14 14
5 7 9 10 10 13 16 6 4 10 9 6 7 8 8 9 10 7 9 13 8 5 9 7 6 9 12 13 11 12 15 12 14 12 13 15 14 12 14 24 21 19 19 18 19 20 20 20 18 18 19 18 18 16 16 16 15 14 12 11 10 9 9 7 6 5 4 4 2 1 0 0 2 3 3 4 6 7 8 8 8 9 9 11 13 14
9 10 10 11 7 7 7 2 5 10 7 9 10 9 10 11 13 10 9 11 7 9 12 9 6 6 9 12 12 11 14 17 16 16 18 18 15 13 13 23 23 20 21 21 21 22 21 20 17 18 19 19 18 16 16 16 16 16 14 14 13 11 10 9 7 6 5 5 4 4 3 3 3 4 5 6 7 8 9 9 9 8 7 8 9 10
11 9 9 14 10 6 6 4 8 10 7 9 11 12 13 14 15 15 15 12 7 7 9 9 7 6 8 10 12 9 9 15 14 14 16 14 13 13 14 23 22 19 22 21 21 22 22 20 18 18 19 18 18 16 16 16 16 15 15 14 12 11 10 9 8 7 6 5 5 5 4 4 5 5 7 8 9 9 10 10 11 11 11 10 9 8
8 7 8 10 7 5 7 7 10 11 8 7 9 13 14 15 15 15 16 12 7 7 7 8 8 5 6 8 10 9 10 14 11 10 12 9 12 14 14 23 25 21 22 22 21 21 21 20 20 19 19 18 18 17 16 15 15 14 14 13 11 10 9 8 7 6 5 5 5 5 5 5 5 6 7 8 9 10 10 11 11 12 12 12 11 10
6 8 11 8 8 8 7 8 10 10 9 7 10 13 11 12 13 13 14 10 8 10 9 10 11 8 7 7 8 10 12 13 9 8 9 10 13 15 14 19 26 24 23 23 22 22 21 22 22 20 20 19 19 18 16 16 15 14 13 12 11 10 9 8 7 6 5 5 6 7 8 8 8 8 8 8 8 9 10 11 12 12 12 12 12 12
5 8 9 8 10 9 6 8 11 11 10 8 13 15 12 12 13 11 10 9 9 9 9 10 11 9 7 7 8 11 12 12 11 9 9 12 16 14 13 17 23 24 24 23 23 23 23 23 23 21 20 20 19 18 17 16 15 14 13 12 11 10 9 8 7 6 6 5 7 8 9 10 11 12 11 9 8 8 9 10 11 11 12 11 11 12
5 7 9 11 11 8 5 7 10 12 9 7 14 15 13 11 11 10 9 8 10 9 9 11 10 8 7 7 7 7 9 10 9 9 10 14 17 15 13 15 19 22 23 23 22 23 23 23 23 22 21 21 20 18 17 17 16 14 13 12 11 10 8 7 7 7 7 7 9 10 10 12 14 14 13 12 10 9 9 9 9 10 11 10 10 11
10 11 9 8 8 10 13 11 10 14 12 9 13 12 10 9 8 8 7 8 9 8 10 12 13 11 8 7 5 4 6 7 5 6 8 12 16 17 17 16 18 20 22 23 23 23 23 22 22 22 22 22 21 20 19 18 16 15 13 11 9 8 7 6 6 7 7 8 9 11 12 14 16 16 17 16 13 10 9 9 10 10 10 11 11 11
12 12 8 6 9 8 11 12 10 12 11 7 7 8 6 6 6 7 7 7 7 8 9 12 14 13 10 7 5 6 6 3 3 5 7 10 12 14 17 18 19 19 20 22 24 24 24 23 23 23 23 23 23 22 20 19 17 15 13 10 9 7 5 5 5 5 5 6 8 11 13 15 16 17 18 17 15 12 10 10 11 11 12 12 11 11
9 9 6 11 13 7 6 8 7 8 8 6 5 6 5 4 5 6 6 7 8 8 9 11 13 11 9 6 5 9 9 7 8 8 8 7 6 9 12 17 19 19 20 22 24 26 27 26 25 25 24 24 24 23 22 20 18 16 13 11 9 7 5 4 3 3 3 5 7 10 13 15 16 18 18 17 15 13 12 11 11 12 13 14 13 13
6 7 6 10 10 3 4 5 5 5 5 6 6 6 7 6 6 7 6 6 8 8 10 11 11 8 7 5 6 8 6 4 4 5 5 5 2 3 9 15 19 18 18 20 23 27 28 26 26 26 26 25 25 25 23 21 20 17 14 12 10 7 5 3 2 1 2 4 7 10 12 14 16 18 18 17 16 13 12 12 12 14 14 14 14 14
7 7 4 5 5 2 4 7 6 6 6 7 7 6 7 6 6 6 6 7 7 7 10 11 8 5 5 3 4 8 5 2 2 4 7 5 1 3 6 12 17 18 19 20 22 27 27 26 27 27 26 26 25 25 24 22 21 18 15 13 10 8 7 4 3 1 1 2 5 8 11 13 16 18 18 17 16 14 13 13 14 15 15 15 13 12
8 7 3 5 7 7 9 8 6 8 8 5 5 6 6 6 6 6 7 9 9 7 8 8 6 5 5 4 4 6 4 4 6 7 7 6 6 7 8 10 13 15 18 20 21 26 29 28 29 28 27 25 24 25 25 23 21 19 16 14 11 8 7 6 4 3 2 2 4 7 10 12 15 17 17 16 15 15 15 15 16 15 15 14 13 13
7 7 6 8 11 11 10 9 7 8 6 2 4 7 4 4 5 6 7 9 8 8 7 6 7 7 6 5 3 6 6 6 7 8 6 5 5 7 7 7 9 11 15 17 19 25 30 29 28 28 26 25 25 24 24 23 22 20 16 14 12 10 8 7 5 4 3 4 6 8 10 11 14 16 16 16 15 15 16 16 15 15 15 15 14 14
6 9 9 11 13 11 11 13 12 11 9 5 4 5 1 2 3 4 6 6 6 8 6 7 10 6 5 4 6 11 8 5 7 6 1 2 3 3 5 4 6 9 11 13 16 22 28 28 27 27 25 24 24 24 23 23 22 20 17 14 13 12 10 8 6 5 5 6 8 9 9 11 14 15 14 14 15 15 15 15 15 15 15 15 15 15
7 9 10 12 12 11 11 11 10 11 14 12 8 5 3 3 2 1 4 5 6 7 6 8 11 6 4 2 5 8 10 8 7 4 1 2 3 3 5 5 6 8 8 11 13 19 26 28 26 25 24 22 23 23 22 23 22 20 18 15 13 13 11 9 8 7 6 7 8 9 10 12 14 14 13 14 15 15 14 14 13 14 15 15 15 16
5 6 8 10 11 10 7 6 6 8 10 12 11 8 6 6 4 3 3 4 5 6 6 8 8 3 2 1 5 2 6 4 6 4 2 2 1 2 5 4 6 7 8 11 12 15 24 28 26 26 25 22 21 22 21 23 23 21 19 17 15 14 12 12 11 8 6 5 6 8 12 17 16 15 15 16 15 14 14 13 14 15 15 16 16 17
1 4 6 9 11 9 6 6 7 7 6 7 8 8 6 5 5 5 6 6 6 6 5 6 6 2 0 1 3 1 0 3 3 4 4 5 1 2 4 4 4 5 6 9 11 11 19 28 28 26 25 22 20 21 22 23 23 22 20 18 17 15 14 13 9 5 3 4 5 7 13 19 18 16 17 17 15 15 14 14 14 15 15 16 17 17
1 4 6 8 8 7 9 8 7 10 11 7 7 7 3 1 4 7 8 8 7 6 6 6 7 2 0 1 2 1 1 1 4 5 3 5 6 2 2 4 5 5 5 6 8 8 11 23 28 26 23 22 21 21 22 23 22 21 20 18 17 16 15 11 5 2 3 5 7 8 16 20 17 15 17 17 15 14 13 14 15 15 16 17 17 17
2 4 6 7 9 10 15 14 8 10 16 12 9 6 2 2 3 7 8 4 2 6 7 7 7 1 1 1 2 2 1 2 6 9 4 5 8 5 3 5 6 7 7 7 8 9 7 13 23 26 24 22 22 21 22 23 21 19 19 18 17 16 14 8 4 3 6 7 7 12 18 17 14 14 17 16 14 13 14 15 16 16 16 17 18 18
1 4 5 7 9 10 15 14 7 7 11 10 9 4 1 1 2 4 6 2 1 5 7 6 6 2 1 1 5 5 2 2 1 6 5 6 10 8 6 9 9 8 7 7 8 9 9 10 18 26 25 23 22 22 22 23 21 19 19 18 16 16 12 6 5 7 8 8 11 15 17 14 12 14 15 13 12 14 16 16 16 17 17 17 18 18
3 4 4 7 8 7 9 7 2 7 7 5 7 7 6 5 4 3 4 2 1 8 9 8 7 3 2 2 3 3 3 1 1 2 4 7 9 7 8 10 10 9 9 9 9 9 10 10 14 22 24 22 22 23 24 24 21 20 20 17 16 16 11 6 8 10 9 12 16 16 13 12 13 14 13 11 12 14 16 16 16 17 18 18 19 19
4 5 5 6 8 7 8 5 1 1 3 4 7 11 12 11 8 6 3 2 4 7 6 7 8 4 3 4 2 4 6 3 1 3 6 9 9 7 9 11 12 11 9 9 10 10 11 11 12 16 20 21 21 22 23 24 21 18 18 17 15 14 11 10 11 9 10 15 16 13 11 12 13 13 12 11 12 14 15 15 17 18 18 19 19 20
4 7 8 8 9 9 10 9 4 3 4 6 8 11 13 10 4 2 3 4 3 5 6 6 7 8 5 3 4 5 5 3 3 6 7 9 9 11 14 16 15 13 12 12 14 13 12 12 12 14 15 17 19 19 20 22 20 17 16 16 14 12 11 9 8 7 11 15 13 11 12 13 12 12 10 11 12 13 14 15 17 18 18 18 19 21
4 7 9 11 12 12 13 15 11 9 9 10 11 12 13 11 7 5 7 7 3 4 7 7 6 7 6 3 6 10 8 3 3 6 6 8 10 10 11 13 14 15 16 15 16 15 14 13 13 13 13 14 17 18 18 18 18 17 16 16 14 12 11 10 10 12 14 14 11 11 12 12 11 11 10 10 12 13 15 16 17 18 19 19 21 21
3 5 9 12 13 13 14 15 14 11 11 10 11 13 14 14 12 10 12 12 8 6 8 10 11 11 6 2 5 10 8 5 9 12 8 9 12 11 10 10 11 15 15 12 12 13 14 15 15 14 13 13 15 17 17 16 18 18 15 14 13 12 11 11 13 15 13 10 10 11 12 11 10 10 10 11 12 14 15 16 17 18 19 20 20 20
1 4 9 11 13 14 14 13 11 11 12 11 12 14 14 14 15 14 15 13 12 13 14 15 17 14 8 3 3 6 7 7 14 18 13 11 10 6 5 7 10 12 12 10 10 10 9 11 13 15 16 16 16 17 16 17 19 17 14 13 13 13 11 11 12 12 10 9 10 11 10 9 9 10 10 11 13 14 15 16 17 18 18 18 18 20
2 5 10 10 11 13 13 12 10 10 12 12 12 13 14 15 16 16 14 10 10 14 14 14 15 10 5 5 5 5 6 9 15 17 10 5 6 10 13 14 16 15 14 11 9 8 7 8 10 10 14 18 17 16 17 18 18 16 15 15 14 12 11 11 11 10 9 10 10 9 9 9 9 9 10 12 13 13 14 16 17 18 17 18 22 24
2 5 9 9 8 10 11 12 10 10 11 13 13 12 12 13 12 9 7 5 5 7 8 10 10 5 4 8 9 9 8 6 9 11 9 6 6 8 11 13 14 15 14 11 8 9 7 7 10 7 11 17 16 13 15 16 14 14 16 16 14 12 12 11 11 10 9 9 9 8 8 8 8 9 10 12 13 13 14 15 16 17 18 21 26 27
4 4 6 6 6 9 12 12 12 10 10 9 7 4 3 6 6 6 7 6 3 3 4 6 6 2 1 4 7 9 9 6 7 12 14 8 2 5 6 7 9 14 15 11 6 7 6 3 7 6 10 16 15 12 13 14 13 13 15 15 13 12 12 12 9 9 9 7 7 7 7 7 8 9 11 12 13 13 14 14 15 16 19 23 26 23
7 7 6 4 4 8 13 14 12 10 7 4 2 2 4 5 5 7 10 9 4 2 3 5 7 5 2 2 4 7 10 10 9 8 10 9 7 7 6 7 9 12 15 13 8 7 6 1 5 6 9 12 14 13 13 13 14 14 15 15 14 12 11 9 7 7 7 7 7 7 7 7 8 9 10 12 12 13 13 14 15 18 21 23 23 20
8 7 5 3 4 7 10 11 8 6 4 1 3 4 7 6 6 8 10 8 5 5 8 9 8 7 6 7 7 7 10 12 9 6 9 14 14 11 8 8 8 9 11 10 7 8 7 2 1 4 7 8 10 13 14 14 15 16 16 14 13 11 10 8 7 6 7 7 7 6 6 7 7 8 10 11 11 12 13 14 18 20 20 20 20 19
7 5 3 4 6 6 7 7 5 6 8 5 6 4 6 5 7 7 7 6 8 10 10 9 8 7 7 9 9 8 9 8 4 5 12 14 13 11 9 9 7 7 8 5 4 4 5 3 2 4 6 7 10 14 15 15 16 16 15 12 11 11 10 8 7 6 6 6 6 6 6 6 7 8 9 10 11 12 13 15 18 17 16 18 20 19
5 2 0 2 4 4 6 7 7 9 9 5 6 6 9 7 7 6 4 4 9 12 11 9 8 7 6 7 8 7 7 4 1 5 11 12 11 10 9 9 7 4 5 4 4 5 4 4 4 5 6 8 11 13 13 15 15 13 12 12 11 10 9 7 7 6 6 6 6 6 6 6 7 7 8 9 10 11 13 14 15 15 15 18 19 18
3 2 2 2 3 3 5 7 7 9 6 4 5 7 9 9 10 8 4 2 7 12 13 11 9 9 8 8 11 11 7 1 2 3 6 8 9 8 6 7 7 5 5 6 6 5 5 6 6 6 7 8 10 10 11 14 14 12 12 12 11 10 9 8 6 5 5 6 6 5 6 6 6 6 8 8 9 11 11 11 12 14 16 17 18 18
3 2 2 3 5 5 6 6 7 5 3 4 4 6 7 8 10 9 5 2 5 9 11 9 7 8 9 9 12 11 7 2 1 2 5 7 7 7 8 9 9 8 7 7 7 6 6 5 6 6 7 9 10 10 11 13 13 11 11 11 10 10 9 7 6 5 6 6 6 6 6 6 5 6 7 7 10 12 10 9 12 14 15 16 17 16
3 2 3 5 5 6 6 7 6 2 2 2 3 6 10 10 8 7 4 2 5 9 8 5 6 8 9 12 12 8 3 3 4 5 8 9 8 9 10 10 10 9 8 8 9 8 6 6 7 9 10 11 11 11 11 12 12 11 10 10 10 10 9 8 7 6 6 6 6 6 6 5 5 5 5 6 9 10 9 8 12 14 14 15 15 15
5 2 2 4 6 6 6 6 5 1 1 3 5 8 12 11 6 3 2 3 6 10 9 8 9 10 11 12 12 8 7 11 13 11 10 10 10 12 12 12 12 12 11 10 10 9 8 9 10 11 12 13 13 13 14 14 13 12 11 10 10 10 9 8 8 7 6 7 6 6 5 6 7 6 5 6 7 7 8 9 12 13 12 12 15 15
5 3 3 4 5 4 4 6 7 3 1 4 9 10 9 7 4 3 4 6 8 9 10 10 12 13 13 12 11 11 13 16 16 15 13 12 13 14 14 13 13 13 12 12 11 10 12 13 14 14 13 14 15 15 16 17 15 13 13 12 11 10 9 9 8 7 7 6 6 7 9 9 8 6 5 6 5 6 8 9 9 12 11 11 15 16
2 1 5 5 3 3 4 5 6 3 1 2 8 8 5 4 7 11 13 11 9 10 13 14 13 12 12 12 11 12 14 16 15 15 15 14 14 15 15 15 14 14 14 13 13 13 13 14 15 15 15 16 16 16 17 18 17 15 14 14 13 11 10 10 9 7 6 7 9 10 10 8 5 4 5 5 5 6 8 7 8 11 11 10 14 15
4 2 5 4 3 3 4 4 5 6 4 5 3 3 5 6 8 16 20 17 14 14 15 13 12 12 12 13 14 14 15 16 15 15 15 15 15 16 15 15 15 15 15 14 14 15 14 14 16 17 16 17 18 19 20 20 20 18 16 15 14 12 11 11 10 8 8 10 11 10 7 5 5 5 5 5 5 6 7 7 7 9 9 10 13 15
2 2 4 2 1 4 6 7 10 11 9 7 4 6 7 8 11 16 19 17 17 20 21 18 16 15 15 16 16 17 17 17 16 16 17 17 17 17 16 16 16 15 15 16 16 15 15 15 16 17 17 18 19 20 21 22 21 19 18 17 15 14 13 12 10 9 10 10 9 7 7 6 5 4 5 6 6 5 5 6 6 6 8 11 14 14
1 2 1 3 4 7 10 13 14 13 12 13 12 7 5 9 14 17 16 16 18 20 21 20 19 19 19 18 18 19 18 18 18 18 18 18 18 17 17 17 16 15 16 16 16 15 16 17 17 17 17 18 19 19 21 22 21 20 19 18 16 15 14 12 11 11 10 9 9 9 8 6 4 5 6 7 5 4 4 6 6 6 8 11 14 14
2 4 1 4 4 5 8 8 12 19 20 17 14 11 9 12 15 15 14 15 17 18 18 19 21 21 20 20 19 19 19 19 19 19 19 18 18 17 17 17 17 17 16 15 15 16 17 17 17 17 17 18 18 17 19 21 20 19 19 18 16 15 13 12 12 12 11 11 10 9 7 5 6 8 7 5 3 3 4 6 8 8 9 12 14 14
4 3 4 4 3 4 8 8 14 22 23 15 13 13 15 16 17 16 16 17 18 18 19 20 22 22 22 22 20 19 19 19 18 18 18 18 18 17 17 16 17 17 17 18 20 19 18 17 17 18 18 17 15 15 17 19 19 18 18 17 16 15 14 13 13 13 12 11 10 8 7 7 8 8 6 4 4 4 5 6 8 10 11 13 14 14
8 6 5 4 5 6 7 7 11 15 15 13 15 17 18 19 19 20 19 19 18 19 19 20 23 23 23 23 23 21 20 19 18 18 18 18 18 17 16 17 18 18 18 19 20 20 19 18 18 17 17 15 14 15 17 17 17 17 17 16 15 15 14 14 14 14 12 11 10 9 8 8 7 6 5 5 5 6 8 8 10 12 13 13 13 12
6 7 6 6 6 6 6 8 9 9 8 12 17 19 19 19 19 19 20 19 18 19 19 19 22 23 21 21 24 25 24 23 21 20 19 18 17 17 17 18 18 18 16 15 17 19 20 18 16 15 14 14 15 18 19 17 15 15 16 15 14 14 14 14 14 14 13 12 11 10 9 8 7 6 6 6 6 8 10 10 11 12 13 13 12 11
2 5 5 7 8 8 11 14 12 9 11 16 19 19 19 19 19 18 19 19 18 19 19 18 20 22 21 20 21 22 24 26 25 24 23 21 18 18 18 17 15 15 16 15 17 20 19 15 13 13 13 15 18 20 21 20 18 17 16 15 14 14 15 15 14 13 12 11 10 10 10 9 8 6 6 6 6 7 9 10 10 11 12 13 13 11
Wind_Direction
201 226 228 230 239 241 239 228 236 255 259 274 298 297 280 259 234 245 192 160 189 222 223 249 258 266 265 261 260 183 158 178 205 228 206 199 204 197 197 133 133 136 135 144 148 144 155 156 154 154 150 148 143 141 141 137 138 142 147 154 157 161 168 174 180 188 195 202 212 216 222 229 233 239 243 252 256 251 244 240 236 232 241 249 248 249
190 236 248 248 250 250 249 233 230 260 261 271 294 290 281 272 257 281 268 174 172 183 213 251 265 267 263 264 271 207 164 173 194 226 216 207 213 199 158 126 133 137 134 146 151 151 159 155 154 151 145 145 144 145 147 143 146 152 159 163 163 166 168 174 179 185 196 208 222 225 238 245 241 246 250 252 252 254 258 256 253 248 248 249 244 242
195 238 249 253 259 260 255 243 286 298 286 278 275 269 269 278 280 282 274 245 196 163 210 235 257 268 258 249 258 249 225 190 176 213 225 205 210 201 150 129 135 140 139 151 155 156 159 156 154 148 147 152 151 151 150 148 152 156 160 162 163 162 157 163 162 160 172 178 208 233 252 259 261 262 256 254 257 260 263 263 260 253 248 249 246 244
239 242 238 244 247 253 257 263 323 299 295 280 260 262 260 261 270 263 250 256 255 273 274 251 244 274 273 261 246 232 246 233 186 201 232 213 205 207 159 138 143 148 150 160 162 161 161 158 155 151 155 160 155 153 152 151 153 153 154 153 150 148 146 145 140 139 132 121 124 114 91 277 308 306 298 296 289 282 280 275 269 258 247 246 245 247
247 264 281 285 281 264 270 329 281 267 268 264 255 256 264 262 265 265 255 255 258 274 278 266 244 258 265 269 261 224 226 237 207 194 219 210 196 208 170 145 150 154 157 166 167 165 162 159 158 158 162 162 157 156 154 152 150 147 145 141 139 136 135 132 125 121 110 97 85 67 50 27 12 346 332 331 323 311 306 303 295 286 277 267 255 249
249 258 277 276 274 273 283 291 265 259 255 260 252 242 252 265 269 274 275 268 254 246 249 255 259 257 247 251 262 248 233 241 216 199 220 200 183 206 172 148 153 157 162 170 171 167 165 163 163 164 164 161 160 158 154 151 144 138 134 129 128 123 118 114 106 101 94 88 79 68 55 32 12 351 338 330 322 315 310 306 302 298 296 293 285 276
271 259 268 280 291 284 278 273 261 260 259 256 256 248 246 254 258 268 280 280 273 265 260 263 266 269 263 251 255 256 255 252 226 214 235 205 192 212 186 156 154 160 168 172 175 172 169 167 166 166 164 164 164 160 153 148 140 134 130 125 122 116 108 102 96 93 88 83 75 63 52 39 21 1 344 329 320 315 310 305 303 301 299 297 295 291
298 279 270 285 291 264 259 268 255 253 261 263 270 271 271 271 260 253 261 263 264 273 272 262 258 261 266 260 256 250 252 256 240 221 233 234 227 221 201 168 156 165 174 172 175 177 175 172 170 169 167 168 169 160 153 148 144 141 134 128 123 116 109 105 99 92 83 72 61 51 42 35 27 17 0 341 324 312 308 306 304 303 300 301 301 296
289 275 275 295 285 261 246 255 259 256 248 263 287 285 286 290 285 276 270 266 265 269 267 260 258 262 261 253 251 247 245 249 239 221 217 234 241 231 210 183 168 174 177 173 178 182 180 175 172 172 170 172 171 161 155 152 150 147 140 135 129 121 114 110 106 100 90 73 58 47 37 31 26 20 11 359 342 321 311 307 305 304 302 301 300 299
266 281 310 321 309 306 294 259 281 290 267 293 317 301 282 280 284 285 280 275 272 267 265 266 264 265 263 254 253 255 255 252 233 216 217 226 228 223 212 197 187 183 177 177 182 184 183 177 174 175 173 173 171 163 159 156 153 152 147 141 131 120 113 105 98 90 77 61 49 39 31 27 21 16 12 7 357 339 322 314 310 306 305 302 295 293
278 271 273 281 280 301 306 295 307 307 289 308 330 315 287 281 288 290 282 281 279 268 265 267 268 269 267 259 258 265 268 272 256 214 219 232 225 211 200 200 201 193 184 184 184 183 182 178 177 176 175 175 171 167 165 160 157 156 151 144 132 118 106 95 83 72 58 46 36 28 23 20 15 11 8 5 360 348 333 320 314 307 303 299 295 293
298 270 251 277 274 267 286 290 291 288 279 287 315 321 320 311 298 288 279 272 262 259 265 268 269 267 262 261 257 257 257 257 260 242 238 241 231 212 194 192 200 199 191 185 184 185 182 179 180 177 177 177 173 172 169 163 162 161 156 150 141 131 117 99 83 70 55 40 28 22 19 15 11 7 4 1 357 349 336 320 311 305 299 296 295 295
314 287 300 316 296 255 253 286 278 268 271 262 256 270 284 291 280 269 263 254 251 261 268 274 280 270 258 270 268 253 241 208 205 226 255 266 237 214 194 189 197 197 194 190 185 183 179 179 183 180 180 179 177 176 171 168 168 166 164 161 156 151 141 120 93 71 45 29 18 16 15 8 5 4 360 355 350 342 331 319 310 303 298 294 290 287
294 283 299 306 296 247 217 267 271 261 261 247 240 242 248 254 259 260 263 259 260 267 270 284 301 292 267 286 309 292 271 238 204 180 242 297 352 227 199 193 196 190 195 201 185 175 175 181 185 182 181 181 181 179 174 173 174 172 174 172 169 167 161 159 140 87 16 15 8 7 6 2 1 359 355 351 345 337 328 317 308 302 299 296 291 286
284 281 283 286 307 332 254 251 254 266 262 244 246 256 259 260 260 262 267 267 272 283 284 289 299 291 267 254 311 325 344 317 251 178 215 233 157 243 224 202 197 188 197 204 185 175 178 184 186 185 185 185 185 182 177 178 179 179 182 181 179 178 180 192 194 206 306 355 351 351 355 355 356 354 350 347 341 333 321 311 306 305 304 302 299 292
289 281 297 291 281 273 263 255 242 259 269 255 243 249 254 265 272 279 279 275 281 286 283 279 269 277 277 228 240 281 277 248 239 219 227 227 197 220 233 218 205 195 198 198 185 180 182 183 185 186 189 189 187 185 182 183 185 186 187 186 188 191 195 205 209 220 245 298 326 340 346 348 350 348 346 341 334 327 318 311 308 306 305 305 302 298
290 283 314 307 279 262 264 273 263 254 259 254 242 250 272 318 299 283 278 280 282 270 259 256 253 265 273 261 302 300 262 237 251 241 222 217 203 210 222 226 221 212 205 196 184 179 178 180 184 188 190 191 190 189 187 187 190 192 193 191 190 195 205 216 228 238 252 285 310 331 341 341 341 341 341 337 329 320 314 309 305 304 304 304 302 300
282 280 286 280 268 264 270 275 272 265 263 264 252 243 258 352 303 279 274 271 268 262 258 258 256 262 262 253 12 351 317 294 299 300 242 177 172 204 225 232 242 235 214 200 189 179 176 179 184 187 189 193 194 193 191 190 192 194 196 195 192 192 198 208 222 231 250 281 303 321 332 332 329 331 333 327 317 310 306 303 303 304 304 302 302 302
296 286 282 273 264 261 261 263 270 264 253 253 262 262 234 227 246 285 273 261 260 261 261 264 263 266 261 227 49 349 306 298 303 307 310 204 173 227 243 222 237 247 227 214 200 179 174 178 183 188 192 194 195 195 193 192 193 193 192 193 193 189 191 193 199 220 257 291 311 321 317 315 319 321 321 318 313 310 306 304 306 306 305 305 305 302
327 291 283 281 276 273 265 253 260 254 237 238 250 253 238 237 224 193 221 241 258 265 266 271 272 272 278 98 86 292 276 315 323 311 313 307 136 250 270 243 235 235 224 230 220 187 180 183 186 190 193 194 195 196 195 194 196 195 189 187 186 186 191 189 197 230 269 286 307 312 300 306 317 316 316 319 315 308 306 308 311 309 307 306 303 299
336 268 274 285 286 283 264 241 252 266 254 232 242 248 241 253 249 223 227 228 233 249 256 268 269 253 299 105 120 210 331 52 331 300 302 307 294 225 271 288 278 254 227 226 228 214 196 189 188 190 192 194 196 199 200 197 196 198 194 187 184 187 193 198 212 250 258 256 296 297 285 299 311 310 313 317 309 305 312 313 310 306 303 301 298 298
308 270 273 289 291 275 265 273 292 295 283 256 248 253 230 253 271 248 240 227 225 247 250 263 272 245 144 265 127 55 317 87 347 337 322 289 290 284 278 283 272 270 266 246 251 259 211 184 183 187 188 193 201 203 203 198 194 197 197 190 188 192 200 208 219 224 229 269 295 274 274 292 304 303 307 309 306 311 314 307 304 304 304 303 301 301
24 283 271 272 272 268 274 280 287 291 287 278 269 264 142 107 254 256 259 243 247 280 273 272 278 237 132 244 137 140 239 58 3 334 312 281 297 311 289 271 262 258 259 251 252 261 236 187 183 189 193 199 205 205 202 199 196 197 198 192 191 197 203 207 207 232 260 274 269 263 277 292 296 295 301 306 309 312 305 302 306 307 307 305 303 303
20 264 268 275 274 273 271 265 262 301 301 287 282 299 37 163 206 250 282 333 70 269 267 262 260 233 112 128 115 125 183 138 240 281 283 296 312 320 287 273 273 265 256 245 236 232 231 207 188 190 197 203 206 204 202 201 199 198 198 195 192 197 204 213 232 247 251 241 249 269 283 289 287 290 298 304 308 304 301 305 309 308 309 309 307 307
326 276 285 294 294 290 272 258 297 351 345 320 306 319 318 313 350 347 317 4 250 252 255 255 255 233 151 172 123 140 217 238 37 327 315 293 286 279 271 285 293 278 258 247 242 234 233 228 203 195 197 201 205 205 203 200 198 196 197 198 195 197 204 216 226 238 249 252 264 279 283 281 286 292 296 302 302 299 302 307 309 310 312 311 310 309
301 283 289 290 290 295 295 288 248 349 338 325 314 315 313 320 349 2 333 298 272 270 272 271 276 277 181 190 209 214 217 232 270 260 272 280 289 304 312 319 316 296 276 261 258 251 240 240 232 215 206 204 205 204 200 196 195 195 197 198 198 199 205 220 233 252 267 267 273 279 275 278 286 289 292 295 294 298 305 308 308 310 311 311 310 308
276 273 274 273 274 278 290 294 263 218 263 283 285 287 288 289 296 316 276 260 288 311 292 269 278 295 292 299 329 298 260 245 243 239 249 271 296 319 317 310 301 291 279 264 259 258 249 241 240 235 223 211 205 201 196 194 196 199 198 197 199 203 211 227 250 259 254 261 272 274 273 280 284 285 289 291 295 305 309 307 307 308 309 307 305 305
271 275 276 276 276 275 282 287 278 263 265 269 269 271 274 272 257 237 245 248 266 301 278 259 259 274 288 332 332 308 303 327 282 255 248 265 278 285 288 291 293 287 274 257 246 241 238 237 238 233 226 218 210 203 197 198 203 204 200 199 203 210 218 234 249 249 253 265 271 268 273 280 281 283 289 293 302 307 305 306 308 306 305 306 308 311
285 279 282 285 288 286 284 285 284 278 269 262 264 268 270 271 262 250 248 250 250 255 266 276 278 276 280 295 292 288 295 326 303 283 268 266 269 266 255 253 264 269 266 260 251 239 228 226 226 221 220 218 209 204 204 206 207 203 200 204 209 210 215 231 246 251 257 265 264 268 276 279 279 285 293 300 303 303 304 308 307 305 310 315 315 313
273 273 285 294 300 297 289 286 282 271 264 262 264 266 268 269 265 258 254 252 250 250 254 268 276 282 290 288 279 271 246 243 268 272 270 267 272 302 328 303 290 284 279 275 267 259 242 222 214 217 225 219 201 201 212 208 200 201 204 208 206 203 214 237 249 250 250 254 264 274 274 273 280 286 294 299 299 303 308 307 307 312 317 314 305 300
183 286 300 305 302 296 293 295 291 279 275 277 273 268 267 266 262 259 256 251 253 257 262 275 278 283 314 342 346 306 254 238 254 264 277 321 359 21 21 2 335 314 304 298 287 286 272 218 197 208 221 214 203 207 211 203 201 209 206 199 197 201 221 243 244 241 246 257 266 270 267 272 283 287 292 298 301 307 308 307 315 319 310 301 297 298
213 284 305 307 298 294 298 305 310 303 290 281 270 268 276 276 272 275 278 272 276 287 304 308 292 286 343 350 342 316 297 293 295 306 331 20 50 39 31 16 343 314 304 302 303 311 296 209 185 195 197 193 197 204 201 197 207 213 197 189 196 204 216 223 225 235 249 259 263 263 265 273 282 288 296 302 307 307 306 312 319 312 301 302 304 303
261 272 296 307 302 295 301 311 314 304 293 283 268 258 299 301 304 313 304 298 304 309 309 300 292 278 308 340 338 320 315 333 357 358 348 342 58 76 53 24 339 328 330 323 310 320 319 179 166 185 182 180 189 196 196 198 202 196 186 187 195 203 210 213 223 242 250 255 260 259 262 272 284 294 298 303 306 306 311 318 315 306 306 310 308 308
279 279 292 307 290 289 302 313 311 298 295 303 311 346 344 332 342 329 314 318 333 331 327 326 328 334 340 5 341 320 331 342 342 354 359 8 43 63 48 13 345 347 352 343 339 348 339 101 140 153 161 171 187 192 194 194 187 182 182 184 188 195 205 211 223 239 241 248 256 256 265 279 287 294 298 301 305 309 315 315 307 306 311 312 310 313
284 286 294 286 275 289 303 308 303 294 308 45 91 12 344 352 14 348 321 331 10 23 23 18 3 358 17 28 12 348 354 355 340 350 25 36 44 49 39 15 356 4 7 351 343 358 352 336 160 159 157 167 184 184 181 179 176 177 178 180 185 191 198 206 218 231 240 247 251 254 271 283 289 296 300 302 304 309 314 311 308 309 312 312 312 315
276 292 309 289 283 292 297 295 288 294 318 21 83 36 356 10 23 359 324 351 31 29 25 27 18 9 18 25 20 356 337 330 323 21 28 32 35 32 23 10 360 5 6 343 289 314 325 304 263 197 177 177 176 171 170 171 173 178 182 184 187 190 195 205 214 228 238 238 243 259 274 283 293 299 300 300 302 306 309 311 314 316 314 312 312 314
278 271 331 291 281 285 286 291 294 291 307 21 65 14 2 2 0 357 327 353 28 26 21 25 19 7 10 10 358 333 311 299 313 17 17 18 15 11 3 358 357 355 343 315 277 279 283 271 255 215 188 180 174 171 178 182 180 181 185 185 186 190 197 205 214 227 234 230 241 261 271 280 294 300 300 302 305 307 307 310 317 322 317 313 315 320
275 228 206 237 256 279 289 295 301 297 307 32 31 358 358 346 339 343 319 329 29 23 18 22 10 355 3 359 336 321 318 41 90 13 2 2 355 348 339 337 341 341 327 313 306 300 277 256 243 216 197 193 189 189 193 191 185 183 187 189 191 196 199 205 217 226 224 227 240 253 264 277 289 293 297 304 308 306 304 310 321 323 317 314 319 324
235 205 223 248 265 283 288 287 293 302 341 29 6 335 331 328 328 325 301 303 11 1 4 14 354 337 342 336 329 328 331 356 67 330 334 334 324 321 324 322 317 314 305 295 300 309 296 263 235 222 216 212 209 209 206 198 190 188 195 198 199 202 205 210 218 221 222 229 237 244 258 273 276 280 297 310 310 309 314 321 322 320 318 320 323 323
248 224 238 256 272 279 282 288 293 306 6 351 323 322 326 325 324 316 307 353 347 328 329 329 309 309 315 315 320 331 335 326 323 318 319 315 301 298 308 310 305 302 297 288 285 289 287 269 249 242 237 228 224 222 215 207 202 204 209 209 206 209 211 210 210 216 225 227 231 244 257 261 260 273 297 304 304 318 336 331 315 316 324 326 322 320
308 302 257 265 280 287 289 288 286 270 104 308 317 329 323 311 304 321 321 282 289 297 299 295 295 301 306 311 317 317 312 318 320 314 310 307 301 300 300 298 295 293 291 291 285 276 269 266 261 257 249 240 236 232 222 214 212 217 220 217 214 214 212 212 214 218 224 227 235 243 237 239 251 259 269 278 290 317 333 321 309 313 324 324 319 321
329 343 323 290 283 299 310 298 301 321 133 286 303 315 317 308 316 341 301 264 265 283 290 287 289 296 303 307 306 305 311 317 315 308 304 303 301 299 296 294 294 291 289 291 288 279 274 268 264 262 257 250 246 238 226 216 214 222 227 224 222 217 211 211 214 218 225 227 227 227 231 246 263 263 260 274 290 307 316 316 308 309 316 320 324 331
354 338 310 314 325 324 306 299 310 319 150 313 324 331 337 329 328 326 316 301 283 272 270 275 286 306 320 318 306 302 308 310 306 302 303 304 302 299 296 294 293 291 288 285 279 276 274 268 265 265 259 252 249 243 230 218 215 222 229 229 226 220 211 211 215 221 223 219 222 233 244 257 272 268 269 289 302 301 309 317 307 305 312 321 331 343
21 352 314 338 11 322 306 322 330 328 3 42 25 294 276 290 326 340 337 328 316 302 295 298 313 330 332 319 309 306 306 304 303 303 303 303 300 297 295 292 290 289 286 282 279 278 275 270 268 267 261 254 250 245 235 227 222 222 226 228 226 221 215 214 219 220 216 221 232 240 241 244 256 267 278 286 285 289 304 313 308 309 314 320 335 349
29 301 295 303 285 290 290 286 290 302 329 348 304 256 276 306 334 350 348 339 333 329 327 326 325 323 320 312 307 306 303 302 304 303 302 302 300 298 296 293 291 290 285 282 282 279 275 272 269 266 262 258 254 248 240 232 225 220 221 222 220 217 214 216 220 219 215 223 233 228 224 239 256 266 271 268 272 289 300 299 301 307 309 320 340 352
171 161 250 293 299 305 286 274 285 308 327 332 324 318 337 335 335 342 342 334 331 329 325 322 317 313 313 311 307 304 301 302 304 302 299 300 298 296 297 297 295 294 290 289 287 282 276 273 268 265 263 261 259 256 244 230 221 215 215 217 215 213 213 215 216 215 213 216 220 224 235 249 246 245 262 267 273 295 290 273 280 297 309 326 346 353
43 101 20 299 312 324 296 294 336 339 330 333 343 346 346 344 341 340 333 321 318 317 315 315 313 310 309 307 304 302 301 301 301 300 299 298 296 296 297 296 296 297 294 290 288 286 282 275 265 261 265 266 264 256 236 221 214 211 211 213 212 209 210 212 213 214 214 216 221 231 240 240 233 244 261 267 267 280 269 259 275 299 318 335 347 351
341 5 326 309 299 291 285 304 337 330 320 331 354 345 334 335 334 331 327 321 319 319 318 319 319 316 315 311 305 300 300 301 300 300 298 297 295 295 296 295 296 299 298 294 292 290 284 275 265 262 265 267 260 242 220 209 206 207 207 209 209 207 208 211 213 215 217 217 221 225 225 230 244 256 260 253 257 258 241 248 281 304 323 337 345 349
351 327 314 319 297 279 282 302 320 319 320 335 341 333 330 331 328 327 326 324 322 322 321 320 317 315 316 317 312 305 301 300 300 299 299 297 296 295 295 299 300 299 298 298 297 293 285 275 268 265 265 263 248 226 212 205 206 207 205 204 206 207 208 212 215 217 217 216 217 220 222 228 241 255 253 245 250 251 245 254 282 303 318 333 341 345
0 313 307 319 308 304 317 320 317 315 313 319 324 325 328 329 326 323 322 320 321 322 321 318 315 314 315 318 317 314 310 307 304 302 298 295 295 297 297 299 299 300 299 297 296 298 294 280 265 264 265 256 238 222 210 202 201 205 206 205 206 210 212 213 217 220 219 217 216 219 221 222 224 233 241 238 243 258 266 274 287 300 314 328 334 339
304 303 314 313 307 309 314 314 314 308 300 308 318 323 324 324 324 323 321 320 320 321 320 318 318 318 319 317 316 319 321 317 311 309 306 299 294 295 299 300 303 311 313 304 295 299 298 279 258 259 257 244 236 229 216 204 200 205 208 208 211 218 219 216 216 219 218 218 220 217 213 216 222 231 235 232 234 255 273 283 291 299 311 320 326 335
Height
1478 1481 1481 1480 1476 1472 1468 1466 1467 1465 1462 1459 1458 1460 1458 1454 1453 1446 1446 1449 1450 1458 1463 1463 1464 1462 1460 1458 1453 1454 1460 1464 1467 1468 1469 1473 1475 1478 1482 1487 1490 1493 1496 1498 1500 1500 1501 1504 1505 1505 1505 1505 1505 1506 1507 1507 1508 1508 1509 1510 1510 1511 1511 1512 1512 1513 1514 1514 1514 1514 1514 1515 1515 1515 1515 1516 1516 1516 1516 1516 1516 1517 1517 1518 1520 1520
1476 1481 1478 1473 1469 1465 1463 1459 1461 1463 1460 1461 1464 1465 1459 1453 1451 1445 1445 1447 1448 1457 1463 1462 1465 1464 1460 1458 1453 1452 1458 1461 1465 1467 1468 1471 1473 1476 1481 1487 1490 1492 1494 1498 1500 1501 1502 1503 1504 1504 1503 1504 1504 1505 1506 1507 1507 1508 1509 1510 1510 1511 1511 1511 1512 1512 1513 1513 1514 1514 1514 1514 1514 1514 1515 1515 1515 1515 1515 1515 1515 1516 1516 1517 1518 1518
1475 1478 1473 1468 1464 1463 1459 1453 1458 1464 1462 1464 1467 1468 1465 1457 1455 1452 1448 1446 1446 1454 1459 1459 1464 1464 1458 1455 1452 1452 1454 1455 1461 1466 1467 1469 1472 1474 1480 1485 1488 1491 1493 1497 1500 1501 1502 1503 1504 1503 1503 1503 1504 1505 1506 1506 1507 1508 1509 1510 1510 1511 1511 1511 1512 1512 1513 1513 1513 1513 1513 1513 1513 1513 1514 1514 1514 1514 1514 1514 1514 1514 1515 1515 1515 1516
1476 1472 1465 1462 1460 1462 1458 1452 1462 1469 1467 1468 1469 1470 1468 1461 1461 1460 1452 1446 1445 1449 1452 1453 1460 1463 1458 1454 1451 1450 1452 1452 1456 1463 1465 1467 1470 1473 1477 1481 1485 1489 1492 1496 1499 1500 1501 1503 1503 1503 1502 1503 1504 1505 1506 1506 1507 1508 1509 1510 1510 1511 1511 1512 1512 1512 1512 1513 1513 1513 1513 1513 1513 1513 1512 1513 1513 1512 1513 1513 1513 1513 1513 1513 1514 1514
1470 1464 1460 1459 1459 1462 1461 1461 1468 1473 1472 1470 1467 1468 1467 1461 1460 1458 1452 1448 1447 1451 1451 1452 1462 1465 1459 1458 1452 1446 1449 1450 1451 1457 1460 1462 1465 1471 1475 1479 1483 1487 1490 1494 1497 1498 1499 1501 1502 1502 1502 1502 1504 1504 1505 1506 1507 1507 1508 1509 1510 1511 1512 1512 1512 1512 1512 1513 1513 1513 1513 1513 1512 1512 1512 1512 1512 1511 1511 1511 1511 1511 1511 1512 1512 1513
1463 1459 1461 1462 1461 1461 1463 1467 1471 1472 1472 1470 1465 1463 1463 1461 1458 1456 1452 1449 1454 1460 1453 1453 1470 1470 1455 1455 1454 1447 1448 1448 1446 1451 1455 1456 1462 1468 1473 1478 1482 1486 1490 1493 1495 1496 1497 1499 1500 1501 1501 1502 1503 1504 1505 1505 1506 1507 1507 1508 1509 1510 1511 1512 1512 1512 1512 1513 1513 1513 1512 1512 1512 1512 1511 1511 1510 1510 1510 1509 1509 1509 1509 1509 1510 1511
1460 1457 1461 1462 1463 1464 1467 1470 1469 1468 1471 1471 1463 1456 1457 1458 1457 1457 1456 1456 1462 1464 1451 1450 1469 1472 1458 1453 1451 1448 1449 1447 1445 1449 1451 1455 1461 1465 1470 1476 1480 1485 1489 1492 1494 1495 1495 1496 1498 1500 1501 1501 1502 1503 1504 1505 1505 1506 1506 1507 1508 1509 1510 1511 1511 1512 1512 1512 1513 1513 1512 1512 1512 1511 1511 1510 1509 1509 1508 1508 1508 1508 1508 1508 1508 1508
1462 1462 1463 1463 1465 1466 1468 1471 1467 1465 1470 1469 1458 1453 1454 1454 1454 1456 1456 1459 1460 1458 1452 1449 1457 1467 1465 1455 1449 1449 1450 1448 1447 1449 1452 1456 1460 1461 1466 1473 1477 1483 1487 1489 1491 1493 1494 1495 1496 1499 1500 1500 1501 1502 1503 1504 1505 1505 1506 1507 1507 1509 1509 1510 1511 1511 1512 1512 1512 1512 1511 1511 1511 1511 1510 1509 1509 1508 1507 1507 1506 1506 1506 1506 1506 1507
1463 1466 1465 1465 1467 1463 1462 1466 1464 1462 1466 1464 1456 1454 1454 1454 1454 1454 1455 1458 1456 1458 1464 1455 1451 1465 1467 1454 1448 1448 1449 1450 1449 1451 1454 1456 1459 1460 1464 1469 1474 1480 1484 1486 1489 1492 1493 1493 1495 1498 1499 1500 1500 1501 1502 1502 1504 1505 1505 1506 1507 1508 1509 1509 1510 1511 1511 1512 1512 1511 1511 1510 1510 1510 1509 1509 1508 1507 1506 1506 1505 1505 1505 1505 1505 1505
1464 1466 1466 1467 1469 1463 1459 1461 1461 1462 1462 1460 1459 1457 1455 1455 1455 1456 1460 1460 1458 1466 1472 1460 1454 1467 1467 1452 1448 1451 1450 1450 1448 1448 1452 1454 1456 1459 1463 1467 1471 1476 1481 1484 1487 1490 1492 1492 1494 1497 1498 1499 1499 1500 1501 1501 1503 1504 1504 1506 1506 1507 1508 1508 1509 1510 1510 1511 1511 1510 1510 1510 1509 1509 1508 1507 1507 1506 1505 1505 1505 1504 1504 1504 1504 1504
1463 1464 1465 1467 1468 1465 1462 1462 1462 1464 1461 1460 1464 1464 1461 1460 1458 1461 1462 1462 1469 1476 1471 1460 1454 1462 1469 1456 1448 1453 1453 1448 1446 1448 1451 1451 1452 1456 1460 1465 1469 1473 1477 1481 1485 1488 1490 1492 1494 1496 1496 1497 1498 1498 1499 1500 1501 1503 1503 1504 1505 1505 1506 1507 1508 1509 1509 1510 1510 1509 1509 1508 1508 1507 1507 1506 1506 1505 1504 1504 1504 1503 1503 1502 1502 1502
1467 1465 1464 1463 1464 1464 1466 1466 1464 1464 1460 1463 1470 1472 1475 1475 1472 1474 1472 1471 1484 1485 1469 1458 1453 1459 1470 1460 1447 1450 1448 1445 1448 1450 1450 1449 1449 1452 1456 1461 1467 1470 1473 1477 1482 1485 1488 1491 1493 1494 1495 1496 1497 1497 1497 1499 1500 1501 1502 1503 1504 1505 1505 1506 1507 1508 1508 1509 1509 1509 1508 1507 1507 1506 1506 1505 1504 1504 1503 1503 1502 1502 1501 1501 1501 1501
1474 1468 1465 1465 1463 1462 1468 1470 1468 1465 1462 1466 1473 1479 1488 1493 1493 1494 1488 1483 1485 1479 1465 1458 1457 1461 1463 1452 1445 1447 1444 1443 1446 1447 1448 1448 1447 1450 1454 1459 1464 1468 1472 1474 1478 1482 1484 1488 1490 1492 1494 1494 1495 1495 1495 1497 1498 1499 1500 1502 1502 1503 1504 1505 1506 1507 1507 1508 1508 1507 1507 1506 1506 1505 1505 1504 1504 1503 1502 1502 1501 1500 1500 1499 1499 1499
1482 1473 1468 1471 1467 1462 1467 1472 1474 1472 1468 1470 1473 1478 1488 1496 1505 1506 1497 1490 1485 1476 1464 1459 1465 1470 1461 1448 1445 1444 1440 1440 1442 1445 1449 1449 1450 1452 1454 1458 1462 1465 1470 1473 1475 1479 1482 1485 1488 1489 1492 1493 1493 1493 1494 1495 1496 1497 1499 1500 1501 1502 1503 1503 1504 1505 1506 1506 1506 1506 1505 1505 1504 1504 1504 1503 1503 1502 1502 1501 1500 1499 1499 1498 1497 1497
1489 1485 1474 1474 1472 1467 1467 1469 1470 1469 1468 1468 1465 1471 1481 1487 1497 1501 1496 1493 1489 1482 1472 1468 1474 1475 1465 1455 1448 1444 1442 1441 1443 1446 1449 1450 1453 1456 1456 1458 1461 1463 1468 1472 1474 1477 1480 1482 1485 1488 1490 1491 1492 1492 1493 1493 1494 1496 1497 1498 1499 1500 1501 1502 1503 1504 1504 1504 1504 1504 1504 1504 1503 1503 1502 1502 1502 1501 1501 1500 1499 1498 1497 1496 1496 1496
1488 1486 1471 1469 1470 1468 1468 1464 1463 1467 1470 1466 1462 1470 1479 1478 1481 1488 1489 1485 1484 1487 1483 1477 1474 1463 1454 1452 1446 1444 1445 1443 1444 1446 1447 1450 1453 1456 1458 1458 1459 1462 1465 1469 1471 1475 1479 1481 1483 1486 1488 1489 1491 1491 1491 1492 1493 1494 1495 1496 1497 1498 1500 1501 1502 1502 1503 1503 1503 1502 1502 1502 1501 1501 1501 1501 1501 1500 1499 1499 1498 1497 1496 1495 1495 1494
1492 1486 1470 1469 1469 1464 1465 1463 1460 1467 1470 1467 1469 1474 1473 1470 1476 1487 1491 1482 1482 1491 1484 1474 1469 1458 1453 1452 1445 1445 1446 1443 1444 1444 1445 1449 1452 1455 1458 1458 1460 1462 1463 1466 1469 1472 1477 1480 1481 1484 1486 1488 1489 1490 1490 1491 1491 1492 1494 1495 1496 1497 1498 1499 1500 1501 1501 1501 1501 1501 1501 1500 1500 1500 1500 1500 1500 1499 1498 1498 1497 1496 1495 1494 1494 1493
1492 1488 1475 1472 1472 1464 1463 1464 1460 1461 1464 1467 1472 1470 1467 1472 1478 1486 1494 1492 1491 1494 1481 1468 1467 1466 1467 1464 1452 1451 1452 1449 1448 1446 1446 1450 1453 1456 1458 1460 1462 1462 1463 1466 1469 1472 1474 1477 1480 1482 1485 1487 1488 1489 1490 1490 1491 1491 1492 1493 1494 1496 1497 1498 1499 1500 1500 1500 1500 1500 1499 1499 1499 1499 1499 1499 1498 1498 1497 1496 1495 1495 1494 1493 1493 1492
1489 1491 1479 1469 1470 1465 1460 1463 1465 1461 1460 1463 1464 1460 1467 1483 1490 1493 1498 1498 1497 1495 1484 1470 1463 1465 1468 1463 1459 1462 1461 1456 1453 1450 1451 1452 1454 1458 1458 1460 1463 1463 1464 1466 1468 1471 1472 1475 1478 1480 1483 1486 1487 1488 1489 1490 1490 1491 1491 1492 1493 1494 1496 1497 1498 1498 1498 1498 1498 1498 1498 1498 1498 1498 1498 1497 1497 1496 1495 1494 1494 1493 1493 1492 1492 1491
1493 1498 1491 1471 1466 1465 1462 1466 1471 1466 1459 1459 1460 1459 1463 1473 1481 1490 1493 1492 1494 1494 1488 1478 1470 1470 1465 1455 1459 1464 1460 1457 1457 1454 1454 1455 1456 1459 1460 1460 1463 1463 1464 1465 1467 1469 1470 1473 1477 1478 1481 1484 1486 1488 1489 1489 1489 1490 1491 1491 1492 1493 1494 1496 1497 1497 1497 1497 1497 1497 1497 1497 1497 1496 1496 1495 1495 1494 1494 1493 1493 1492 1492 1492 1491 1491
1495 1500 1498 1479 1468 1469 1470 1469 1468 1467 1462 1462 1465 1465 1466 1467 1468 1475 1478 1477 1482 1489 1491 1487 1480 1474 1464 1452 1454 1458 1456 1458 1459 1457 1457 1457 1457 1460 1461 1462 1463 1464 1465 1465 1466 1467 1469 1472 1475 1477 1479 1482 1484 1486 1487 1488 1488 1489 1490 1490 1491 1492 1493 1494 1495 1496 1496 1496 1496 1497 1496 1495 1495 1495 1494 1494 1493 1493 1492 1492 1492 1491 1491 1491 1490 1489
1495 1497 1498 1491 1482 1478 1473 1464 1462 1467 1465 1463 1465 1465 1468 1476 1481 1482 1478 1469 1469 1475 1478 1481 1479 1470 1459 1452 1451 1454 1456 1457 1458 1459 1459 1458 1458 1460 1462 1464 1464 1465 1466 1466 1466 1467 1468 1470 1473 1476 1477 1480 1482 1484 1485 1486 1487 1488 1489 1489 1490 1490 1492 1493 1494 1495 1495 1495 1495 1495 1494 1494 1494 1493 1493 1492 1492 1491 1491 1491 1491 1490 1490 1489 1489 1488
1497 1497 1497 1494 1485 1478 1471 1462 1465 1472 1467 1461 1463 1463 1467 1479 1489 1493 1484 1473 1473 1472 1467 1471 1477 1468 1454 1450 1451 1453 1456 1457 1459 1461 1460 1459 1460 1460 1462 1464 1464 1465 1466 1466 1466 1467 1468 1468 1470 1473 1475 1477 1480 1481 1483 1484 1485 1487 1487 1488 1489 1489 1490 1492 1493 1494 1494 1494 1494 1493 1493 1493 1493 1492 1491 1491 1490 1490 1490 1490 1489 1489 1488 1487 1487 1486
1498 1496 1496 1492 1481 1472 1466 1461 1465 1471 1470 1468 1467 1468 1473 1480 1489 1492 1484 1480 1485 1483 1475 1477 1480 1469 1454 1449 1450 1453 1455 1457 1459 1461 1460 1461 1461 1461 1463 1463 1464 1464 1465 1466 1466 1467 1469 1468 1468 1470 1472 1474 1477 1478 1480 1481 1483 1485 1486 1487 1488 1487 1489 1490 1491 1493 1493 1493 1492 1492 1492 1492 1491 1491 1490 1490 1490 1489 1489 1488 1487 1487 1486 1485 1484 1483
1500 1495 1496 1497 1491 1481 1472 1468 1474 1479 1480 1482 1478 1475 1476 1476 1481 1483 1481 1487 1492 1482 1476 1479 1474 1463 1456 1452 1451 1453 1455 1456 1458 1460 1461 1462 1462 1462 1463 1462 1463 1464 1463 1465 1465 1466 1467 1468 1468 1469 1470 1471 1473 1475 1478 1480 1482 1484 1485 1486 1487 1486 1488 1489 1490 1491 1491 1490 1490 1491 1491 1490 1490 1490 1489 1489 1489 1488 1487 1486 1486 1485 1484 1483 1482 1481
1501 1497 1497 1501 1501 1497 1489 1485 1491 1493 1492 1491 1486 1480 1478 1477 1480 1482 1485 1495 1495 1480 1474 1477 1469 1459 1454 1452 1452 1454 1454 1456 1458 1460 1461 1461 1461 1461 1461 1461 1463 1463 1463 1464 1464 1464 1465 1466 1467 1467 1468 1469 1471 1473 1476 1478 1480 1482 1483 1485 1486 1486 1487 1487 1488 1489 1489 1488 1488 1489 1489 1489 1488 1488 1488 1488 1487 1487 1486 1485 1484 1484 1483 1482 1480 1479
1500 1497 1494 1497 1498 1496 1492 1488 1489 1493 1494 1492 1487 1483 1481 1480 1481 1485 1491 1494 1490 1483 1479 1475 1472 1469 1462 1458 1459 1459 1456 1456 1458 1459 1460 1460 1460 1460 1461 1461 1461 1462 1462 1462 1462 1463 1463 1464 1465 1466 1466 1468 1470 1472 1474 1476 1479 1481 1482 1483 1484 1485 1486 1486 1487 1487 1487 1486 1487 1487 1487 1487 1487 1486 1486 1486 1485 1485 1485 1484 1483 1482 1481 1479 1478 1476
1501 1499 1493 1491 1491 1488 1486 1483 1481 1484 1486 1485 1484 1481 1480 1479 1479 1484 1489 1484 1482 1488 1483 1468 1467 1473 1469 1466 1467 1464 1459 1458 1458 1459 1459 1459 1460 1460 1460 1460 1460 1460 1460 1460 1460 1461 1462 1463 1464 1464 1465 1466 1468 1470 1472 1474 1477 1479 1480 1481 1482 1483 1484 1485 1485 1485 1485 1485 1486 1486 1486 1485 1485 1485 1484 1484 1484 1483 1483 1482 1481 1480 1478 1477 1475 1474
1504 1503 1494 1490 1488 1484 1483 1481 1479 1480 1481 1479 1479 1478 1476 1476 1475 1477 1478 1474 1475 1483 1479 1465 1462 1465 1464 1464 1466 1465 1463 1461 1461 1460 1458 1458 1458 1458 1458 1459 1459 1459 1458 1458 1458 1459 1459 1461 1462 1462 1463 1465 1467 1469 1470 1473 1476 1477 1479 1480 1480 1482 1483 1484 1483 1483 1484 1484 1484 1484 1484 1484 1483 1483 1483 1483 1482 1482 1481 1480 1479 1477 1476 1475 1474 1472
1503 1500 1492 1489 1487 1483 1480 1478 1478 1481 1480 1475 1474 1474 1472 1471 1471 1470 1469 1468 1470 1473 1470 1465 1462 1460 1460 1461 1462 1463 1463 1462 1462 1461 1457 1456 1456 1456 1456 1457 1457 1458 1457 1456 1456 1457 1458 1458 1459 1461 1463 1464 1465 1467 1469 1472 1474 1476 1478 1479 1479 1481 1482 1482 1482 1482 1483 1483 1483 1483 1482 1482 1482 1481 1482 1481 1480 1479 1479 1478 1476 1475 1474 1473 1472 1470
1503 1498 1490 1489 1489 1483 1477 1474 1475 1478 1476 1472 1471 1470 1468 1468 1467 1466 1466 1466 1470 1470 1465 1463 1462 1461 1461 1460 1459 1460 1458 1458 1460 1458 1454 1454 1455 1456 1456 1457 1458 1459 1457 1456 1456 1456 1457 1457 1458 1460 1461 1462 1464 1466 1468 1470 1472 1474 1476 1476 1478 1479 1480 1481 1481 1482 1482 1482 1481 1481 1481 1480 1480 1480 1480 1480 1478 1478 1477 1476 1475 1474 1472 1470 1468 1467
1501 1499 1493 1493 1493 1485 1476 1472 1474 1476 1474 1471 1469 1468 1468 1469 1468 1468 1469 1469 1470 1469 1467 1467 1466 1465 1463 1462 1461 1458 1456 1457 1459 1457 1456 1456 1456 1457 1457 1458 1461 1461 1459 1457 1457 1456 1456 1457 1457 1459 1459 1461 1463 1465 1467 1469 1472 1473 1473 1475 1477 1478 1478 1479 1480 1480 1480 1480 1480 1480 1479 1479 1479 1479 1479 1478 1477 1476 1475 1474 1474 1471 1469 1467 1466 1464
1496 1499 1496 1497 1498 1488 1477 1473 1473 1474 1474 1472 1468 1466 1467 1468 1468 1469 1469 1466 1466 1469 1472 1469 1465 1463 1462 1463 1463 1461 1458 1459 1459 1460 1461 1459 1456 1457 1458 1460 1462 1462 1460 1458 1457 1457 1458 1457 1457 1458 1459 1460 1463 1466 1467 1469 1471 1472 1472 1474 1475 1475 1476 1477 1478 1479 1479 1479 1479 1478 1478 1477 1477 1477 1477 1476 1475 1474 1473 1473 1472 1468 1466 1464 1463 1461
1492 1495 1494 1498 1500 1491 1479 1474 1475 1477 1479 1476 1469 1466 1465 1465 1466 1468 1467 1463 1465 1469 1470 1466 1463 1462 1462 1463 1463 1463 1462 1461 1460 1462 1464 1461 1457 1457 1458 1460 1461 1460 1460 1459 1457 1458 1459 1459 1458 1460 1460 1462 1464 1466 1467 1469 1470 1471 1471 1473 1473 1474 1475 1476 1476 1477 1477 1477 1477 1477 1477 1476 1476 1476 1475 1474 1474 1473 1472 1471 1469 1466 1464 1463 1461 1459
1490 1492 1494 1496 1497 1490 1481 1480 1485 1483 1475 1469 1467 1466 1466 1465 1465 1467 1467 1464 1465 1466 1465 1465 1466 1466 1464 1464 1464 1464 1464 1464 1464 1464 1463 1460 1458 1459 1459 1460 1460 1460 1460 1461 1460 1459 1460 1460 1460 1461 1461 1463 1463 1465 1466 1468 1468 1469 1470 1471 1471 1472 1473 1474 1475 1475 1475 1476 1476 1475 1475 1475 1474 1474 1473 1473 1472 1472 1471 1469 1466 1464 1463 1462 1460 1458
1487 1492 1496 1495 1492 1489 1486 1487 1488 1478 1463 1462 1467 1468 1468 1467 1466 1468 1469 1466 1465 1466 1465 1467 1468 1467 1466 1465 1465 1466 1467 1467 1466 1464 1462 1460 1460 1460 1460 1460 1461 1460 1461 1461 1462 1462 1461 1461 1461 1461 1462 1463 1463 1464 1465 1466 1467 1468 1468 1469 1470 1471 1471 1472 1473 1473 1473 1474 1474 1474 1474 1473 1472 1472 1471 1471 1470 1470 1469 1467 1465 1464 1463 1461 1459 1457
1485 1491 1498 1499 1494 1493 1490 1485 1478 1469 1462 1468 1475 1474 1474 1475 1472 1473 1474 1470 1468 1469 1468 1468 1469 1469 1468 1467 1466 1467 1467 1466 1465 1463 1461 1461 1461 1461 1461 1461 1461 1461 1461 1462 1462 1462 1461 1461 1461 1461 1462 1462 1463 1464 1464 1465 1465 1466 1467 1468 1469 1469 1470 1471 1471 1471 1472 1472 1472 1472 1472 1471 1471 1470 1469 1469 1468 1468 1467 1465 1464 1463 1462 1460 1458 1456
1486 1489 1495 1498 1494 1491 1491 1489 1481 1474 1473 1479 1481 1479 1478 1478 1475 1474 1475 1473 1471 1471 1470 1470 1471 1470 1469 1468 1468 1466 1464 1463 1464 1464 1462 1462 1461 1461 1461 1461 1460 1460 1461 1461 1461 1462 1461 1461 1461 1461 1462 1462 1463 1464 1464 1464 1464 1465 1466 1467 1468 1468 1469 1469 1470 1470 1470 1470 1470 1470 1470 1469 1469 1468 1468 1467 1467 1466 1465 1464 1463 1462 1460 1458 1457 1455
1486 1491 1494 1496 1494 1490 1492 1493 1486 1480 1482 1485 1484 1480 1477 1475 1474 1473 1474 1474 1473 1472 1471 1471 1472 1470 1469 1468 1466 1464 1464 1465 1465 1463 1462 1462 1461 1461 1461 1460 1460 1461 1460 1460 1461 1461 1460 1460 1460 1461 1461 1462 1462 1463 1463 1463 1464 1465 1465 1466 1466 1467 1467 1468 1468 1469 1469 1469 1469 1469 1468 1468 1467 1466 1466 1466 1465 1464 1463 1463 1462 1461 1459 1458 1456 1454
1487 1493 1493 1494 1494 1492 1492 1492 1485 1482 1485 1484 1480 1478 1475 1473 1473 1474 1477 1476 1473 1472 1471 1471 1471 1469 1467 1467 1465 1463 1464 1465 1463 1462 1461 1461 1460 1460 1460 1459 1460 1460 1460 1459 1459 1459 1459 1459 1460 1460 1460 1461 1461 1462 1462 1463 1463 1464 1464 1464 1465 1465 1466 1466 1467 1467 1467 1467 1467 1467 1467 1467 1466 1465 1465 1465 1465 1464 1463 1462 1461 1460 1459 1458 1456 1454
1486 1489 1489 1490 1492 1489 1490 1491 1484 1480 1484 1481 1476 1476 1475 1472 1473 1478 1479 1476 1472 1471 1471 1469 1469 1468 1466 1466 1465 1463 1462 1463 1461 1461 1461 1460 1459 1459 1459 1459 1458 1458 1458 1458 1457 1457 1457 1458 1458 1458 1459 1459 1459 1460 1461 1461 1461 1462 1463 1463 1464 1464 1464 1464 1464 1465 1465 1465 1465 1466 1466 1465 1464 1464 1464 1464 1464 1463 1462 1462 1461 1460 1459 1458 1456 1454
1492 1492 1489 1490 1492 1489 1489 1489 1481 1478 1482 1481 1476 1475 1475 1474 1476 1477 1475 1472 1470 1470 1470 1469 1468 1466 1465 1465 1464 1463 1462 1461 1461 1460 1460 1459 1459 1458 1457 1457 1456 1456 1456 1456 1456 1456 1456 1455 1456 1456 1457 1457 1457 1458 1458 1459 1459 1460 1461 1462 1462 1462 1462 1462 1463 1463 1463 1464 1464 1464 1463 1463 1462 1462 1463 1463 1462 1462 1461 1461 1460 1459 1458 1457 1455 1453
1497 1498 1490 1487 1489 1489 1488 1488 1484 1482 1483 1480 1478 1479 1478 1479 1479 1476 1472 1471 1470 1469 1468 1467 1465 1465 1464 1464 1464 1463 1461 1460 1459 1459 1458 1458 1457 1456 1456 1455 1455 1454 1454 1454 1454 1454 1454 1454 1454 1453 1454 1454 1455 1456 1456 1456 1457 1458 1459 1460 1461 1461 1461 1461 1461 1461 1462 1462 1462 1462 1461 1461 1461 1461 1461 1461 1461 1461 1460 1460 1459 1458 1457 1456 1454 1452
1496 1499 1496 1492 1494 1494 1491 1485 1482 1480 1478 1477 1480 1483 1481 1479 1479 1477 1475 1473 1471 1470 1468 1466 1464 1464 1464 1463 1462 1461 1460 1459 1458 1457 1456 1456 1456 1455 1454 1454 1453 1453 1452 1452 1452 1452 1452 1452 1451 1451 1451 1451 1452 1453 1453 1453 1454 1456 1457 1458 1459 1460 1460 1459 1459 1460 1460 1461 1460 1460 1460 1460 1460 1460 1460 1460 1460 1460 1459 1459 1458 1457 1456 1454 1453 1451
1497 1499 1499 1497 1496 1496 1491 1483 1477 1476 1475 1476 1478 1478 1477 1477 1476 1475 1474 1473 1472 1471 1469 1466 1465 1464 1463 1462 1461 1459 1458 1457 1456 1456 1455 1455 1454 1453 1452 1451 1451 1451 1450 1450 1450 1450 1449 1449 1449 1449 1449 1448 1449 1450 1450 1450 1450 1452 1454 1456 1457 1457 1457 1457 1458 1458 1459 1459 1459 1459 1459 1459 1459 1459 1459 1459 1458 1458 1458 1458 1457 1456 1455 1453 1452 1450
1494 1496 1498 1496 1494 1492 1486 1479 1476 1476 1475 1475 1476 1475 1475 1475 1474 1472 1472 1471 1470 1469 1468 1467 1465 1463 1462 1461 1459 1458 1457 1455 1455 1454 1453 1453 1452 1451 1450 1449 1449 1448 1448 1448 1448 1447 1447 1447 1446 1446 1446 1446 1446 1447 1447 1447 1447 1449 1452 1453 1454 1455 1455 1456 1456 1456 1457 1458 1458 1458 1457 1457 1457 1458 1457 1457 1457 1457 1457 1456 1455 1454 1453 1451 1450 1449
1490 1492 1493 1493 1493 1492 1486 1479 1479 1481 1478 1475 1475 1475 1474 1473 1473 1472 1471 1469 1468 1467 1466 1465 1464 1462 1460 1459 1458 1456 1455 1454 1453 1452 1451 1450 1450 1449 1448 1447 1447 1446 1446 1446 1445 1445 1445 1444 1444 1443 1444 1444 1444 1444 1444 1444 1445 1447 1450 1451 1452 1453 1454 1454 1454 1455 1455 1456 1456 1456 1456 1456 1456 1456 1456 1456 1456 1456 1456 1454 1453 1453 1452 1450 1449 1448
1491 1491 1490 1489 1491 1491 1486 1481 1482 1483 1480 1476 1476 1475 1474 1473 1472 1470 1469 1468 1467 1466 1464 1463 1462 1461 1459 1458 1457 1455 1453 1452 1451 1450 1449 1448 1447 1446 1446 1445 1445 1445 1444 1443 1443 1443 1442 1442 1442 1442 1442 1442 1442 1442 1442 1442 1444 1446 1447 1449 1450 1451 1452 1452 1452 1453 1453 1454 1454 1454 1454 1455 1455 1454 1454 1455 1455 1455 1454 1453 1452 1451 1450 1450 1449 1447
1494 1493 1489 1488 1488 1486 1482 1481 1482 1481 1477 1474 1475 1474 1473 1472 1471 1469 1468 1467 1465 1464 1462 1461 1460 1459 1458 1457 1456 1454 1452 1451 1450 1448 1447 1446 1445 1445 1444 1444 1443 1443 1442 1441 1441 1440 1440 1439 1440 1440 1440 1440 1440 1440 1440 1442 1443 1444 1445 1447 1448 1449 1449 1450 1450 1450 1451 1452 1452 1452 1453 1453 1453 1453 1453 1454 1453 1453 1453 1453 1451 1450 1449 1449 1448 1447
1494 1493 1488 1487 1487 1484 1481 1481 1482 1480 1477 1474 1473 1473 1472 1471 1469 1468 1466 1464 1463 1462 1461 1459 1457 1456 1456 1455 1455 1454 1452 1450 1449 1448 1446 1445 1444 1443 1443 1442 1441 1441 1440 1439 1438 1437 1437 1436 1436 1437 1438 1438 1437 1438 1438 1440 1442 1443 1444 1445 1446 1447 1448 1448 1448 1448 1449 1449 1450 1450 1451 1451 1451 1452 1452 1452 1452 1451 1451 1451 1451 1449 1448 1448 1447 1446
1492 1491 1489 1489 1488 1484 1482 1480 1480 1480 1477 1474 1472 1472 1470 1469 1468 1466 1465 1463 1462 1460 1459 1458 1456 1455 1453 1453 1453 1452 1450 1449 1448 1447 1445 1443 1442 1442 1441 1440 1440 1439 1438 1438 1436 1435 1435 1434 1434 1435 1435 1435 1434 1435 1436 1438 1440 1441 1442 1443 1444 1446 1446 1446 1446 1446 1447 1447 1447 1448 1449 1449 1449 1450 1450 1450 1450 1450 1449 1449 1449 1448 1447 1447 1446 1446